Time[GMT],gps_lat[degrees_north](-3m),gps_lon[degrees_west](-3m),gps_2_lat[degrees_north](-3m),gps_2_lon[degrees_west](-3m)
2018-05-08 15:00,18.474199295,-66.099700928,18.46,-66.09
2018-05-08 16:00,18.474184036,-66.099700928,18.47,-66.10
2018-05-08 17:00,18.474184036,-66.099716187,18.47,-66.10
2018-05-08 18:00,18.474166870,-66.099731445,18.47,-66.10
2018-05-08 19:00,18.474184036,-66.099731445,18.47,-66.10
2018-05-08 20:00,18.474166870,-66.099746704,18.47,-66.10
2018-05-08 21:00,18.474184036,-66.099746704,18.47,-66.10
2018-05-08 22:00,18.474184036,-66.099716187,18.47,-66.10
2018-05-08 23:00,18.474166870,-66.099731445,18.47,-66.10
2018-05-09 00:00,18.474199295,-66.099731445,18.47,-66.10
2018-05-09 01:00,,,18.47,-66.10
2018-05-09 02:00,,,18.47,-66.10
2018-05-09 03:00,,,18.47,-66.10
2018-05-09 04:00,,,18.47,-66.10
2018-05-09 05:00,,,18.47,-66.10
2018-05-09 06:00,,,18.47,-66.10
2018-05-09 07:00,,,18.47,-66.10
2018-05-09 08:00,,,18.47,-66.10
2018-05-09 09:00,18.474184036,-66.099601746,18.47,-66.10
2018-05-09 10:00,18.474166870,-66.099563599,18.47,-66.10
2018-05-09 11:00,18.474199295,-66.099670410,18.47,-66.10
2018-05-09 12:00,18.474216461,-66.099700928,18.47,-66.10
2018-05-09 13:00,18.474184036,-66.099647522,18.47,-66.10
2018-05-09 14:00,18.474199295,-66.099700928,18.47,-66.10
2018-05-09 15:00,18.474184036,-66.099716187,18.47,-66.10
2018-05-09 16:00,18.474166870,-66.099731445,18.47,-66.10
2018-05-09 17:00,18.474166870,-66.099731445,18.47,-66.10
2018-05-09 18:00,18.474166870,-66.099716187,18.47,-66.10
2018-05-09 19:00,18.474166870,-66.099731445,18.47,-66.10
2018-05-09 20:00,18.474199295,-66.099731445,18.47,-66.10
2018-05-09 21:00,18.474184036,-66.099601746,18.47,-66.10
2018-05-09 22:00,18.474216461,-66.099685669,18.47,-66.10
2018-05-09 23:00,18.474266052,-66.099685669,18.47,-66.10
2018-05-10 00:00,18.474250793,-66.099685669,18.47,-66.10
2018-05-10 01:00,18.474216461,-66.099670410,18.47,-66.10
2018-05-10 02:00,18.474199295,-66.099716187,18.47,-66.10
2018-05-10 03:00,18.474216461,-66.099731445,18.47,-66.10
2018-05-10 04:00,18.474199295,-66.099700928,18.47,-66.10
2018-05-10 05:00,18.474184036,-66.099700928,18.47,-66.10
2018-05-10 06:00,18.474184036,-66.099716187,18.47,-66.10
2018-05-10 07:00,18.474184036,-66.099700928,18.47,-66.10
2018-05-10 08:00,18.474216461,-66.099700928,18.47,-66.10
2018-05-10 09:00,18.474216461,-66.099685669,18.47,-66.10
2018-05-10 10:00,18.474184036,-66.099670410,18.47,-66.10
2018-05-10 11:00,18.474149704,-66.099670410,18.47,-66.10
2018-05-10 12:00,18.474184036,-66.099670410,18.47,-66.10
2018-05-10 13:00,18.474166870,-66.099716187,18.47,-66.10
2018-05-10 14:00,18.474166870,-66.099731445,18.47,-66.10
2018-05-10 15:00,18.474132538,-66.099731445,18.47,-66.10
2018-05-10 16:00,18.474166870,-66.099731445,18.47,-66.10
2018-05-10 17:00,18.474166870,-66.099731445,18.47,-66.10
2018-05-10 18:00,18.474166870,-66.099746704,18.47,-66.10
2018-05-10 19:00,18.474166870,-66.099746704,18.47,-66.10
2018-05-10 20:00,18.474184036,-66.099769592,18.47,-66.10
2018-05-10 21:00,18.474199295,-66.099746704,18.47,-66.10
2018-05-10 22:00,18.474184036,-66.099769592,18.47,-66.10
2018-05-10 23:00,18.474199295,-66.099746704,18.47,-66.10
2018-05-11 00:00,18.474166870,-66.099731445,18.47,-66.10
2018-05-11 01:00,18.474184036,-66.099746704,18.47,-66.10
2018-05-11 02:00,18.474216461,-66.099746704,18.47,-66.10
2018-05-11 03:00,18.474184036,-66.099746704,18.47,-66.10
2018-05-11 04:00,18.474166870,-66.099746704,18.47,-66.10
2018-05-11 05:00,18.474216461,-66.099731445,18.47,-66.10
2018-05-11 06:00,18.474216461,-66.099700928,18.47,-66.10
2018-05-11 07:00,18.474199295,-66.099685669,18.47,-66.10
2018-05-11 08:00,18.474216461,-66.099716187,18.47,-66.10
2018-05-11 09:00,18.474216461,-66.099716187,18.47,-66.10
2018-05-11 10:00,18.474199295,-66.099700928,18.47,-66.10
2018-05-11 11:00,18.474199295,-66.099700928,18.47,-66.10
2018-05-11 12:00,18.474216461,-66.099716187,18.47,-66.10
2018-05-11 13:00,18.474199295,-66.099700928,18.47,-66.10
2018-05-11 14:00,18.474184036,-66.099746704,18.47,-66.10
2018-05-11 15:00,18.474184036,-66.099769592,18.47,-66.10
2018-05-11 16:00,18.474166870,-66.099746704,18.47,-66.10
2018-05-11 17:00,18.474233627,-66.099716187,18.47,-66.10
2018-05-11 18:00,18.474184036,-66.099731445,18.47,-66.10
2018-05-11 19:00,18.474250793,-66.099716187,18.47,-66.10
2018-05-11 20:00,18.474184036,-66.099731445,18.47,-66.10
2018-05-11 21:00,18.474233627,-66.099670410,18.47,-66.10
2018-05-11 22:00,18.474166870,-66.099746704,18.47,-66.10
2018-05-11 23:00,18.474184036,-66.099716187,18.47,-66.10
2018-05-12 00:00,18.474184036,-66.099716187,18.47,-66.10
2018-05-12 01:00,18.474216461,-66.099716187,18.47,-66.10
2018-05-12 02:00,18.474233627,-66.099716187,18.47,-66.10
2018-05-12 03:00,18.474216461,-66.099716187,18.47,-66.10
2018-05-12 04:00,18.474216461,-66.099716187,18.47,-66.10
2018-05-12 05:00,18.474216461,-66.099716187,18.47,-66.10
2018-05-12 06:00,18.474199295,-66.099731445,18.47,-66.10
2018-05-12 07:00,18.474199295,-66.099700928,18.47,-66.10
2018-05-12 08:00,18.474216461,-66.099685669,18.47,-66.10
2018-05-12 09:00,18.474216461,-66.099700928,18.47,-66.10
2018-05-12 10:00,18.474216461,-66.099685669,18.47,-66.10
2018-05-12 11:00,18.474233627,-66.099670410,18.47,-66.10
2018-05-12 12:00,18.474233627,-66.099647522,18.47,-66.10
2018-05-12 13:00,18.474250793,-66.099670410,18.47,-66.10
2018-05-12 14:00,18.474216461,-66.099685669,18.47,-66.10
2018-05-12 15:00,18.474216461,-66.099700928,18.47,-66.10
2018-05-12 16:00,18.474266052,-66.099632263,18.47,-66.10
2018-05-12 17:00,18.474233627,-66.099685669,18.47,-66.10
2018-05-12 18:00,18.474266052,-66.099670410,18.47,-66.10
2018-05-12 19:00,18.474266052,-66.099685669,18.47,-66.10
2018-05-12 20:00,18.474199295,-66.099685669,18.47,-66.10
2018-05-12 21:00,18.474166870,-66.099746704,18.47,-66.10
2018-05-12 22:00,,,18.47,-66.10
2018-05-12 23:00,18.474166870,-66.099716187,18.47,-66.10
2018-05-13 00:00,18.474184036,-66.099716187,18.47,-66.10
2018-05-13 01:00,18.474184036,-66.099746704,18.47,-66.10
2018-05-13 02:00,18.474149704,-66.099769592,18.47,-66.10
2018-05-13 03:00,18.474250793,-66.099731445,18.47,-66.10
2018-05-13 04:00,18.474250793,-66.099716187,18.47,-66.10
2018-05-13 05:00,18.474233627,-66.099700928,18.47,-66.10
2018-05-13 06:00,18.474216461,-66.099731445,18.47,-66.10
2018-05-13 07:00,18.474216461,-66.099700928,18.47,-66.10
2018-05-13 08:00,18.474216461,-66.099716187,18.47,-66.10
2018-05-13 09:00,18.474216461,-66.099700928,18.47,-66.10
2018-05-13 10:00,18.474216461,-66.099685669,18.47,-66.10
2018-05-13 11:00,18.474216461,-66.099685669,18.47,-66.10
2018-05-13 12:00,18.474216461,-66.099700928,18.47,-66.10
2018-05-13 13:00,18.474216461,-66.099731445,18.47,-66.10
2018-05-13 14:00,18.474184036,-66.099746704,18.47,-66.10
2018-05-13 15:00,18.474166870,-66.099731445,18.47,-66.10
2018-05-13 16:00,18.474184036,-66.099746704,18.47,-66.10
2018-05-13 17:00,18.474184036,-66.099784851,18.47,-66.10
2018-05-13 18:00,18.474199295,-66.099784851,18.47,-66.10
2018-05-13 19:00,18.474216461,-66.099784851,18.47,-66.10
2018-05-13 20:00,18.474184036,-66.099769592,18.47,-66.10
2018-05-13 21:00,18.474199295,-66.099769592,18.47,-66.10
2018-05-13 22:00,18.474199295,-66.099769592,18.47,-66.10
2018-05-13 23:00,18.474184036,-66.099746704,18.47,-66.10
2018-05-14 00:00,18.474199295,-66.099746704,18.47,-66.10
2018-05-14 01:00,18.474184036,-66.099716187,18.47,-66.10
2018-05-14 02:00,18.474216461,-66.099716187,18.47,-66.10
2018-05-14 03:00,18.474233627,-66.099731445,18.47,-66.10
2018-05-14 04:00,18.474199295,-66.099746704,18.47,-66.10
2018-05-14 05:00,18.474184036,-66.099731445,18.47,-66.10
2018-05-14 06:00,18.474199295,-66.099731445,18.47,-66.10
2018-05-14 07:00,18.474184036,-66.099700928,18.47,-66.10
2018-05-14 08:00,18.474216461,-66.099700928,18.47,-66.10
2018-05-14 09:00,18.474199295,-66.099716187,18.47,-66.10
2018-05-14 10:00,18.474199295,-66.099731445,18.47,-66.10
2018-05-14 11:00,18.474199295,-66.099716187,18.47,-66.10
2018-05-14 12:00,18.474199295,-66.099716187,18.47,-66.10
2018-05-14 13:00,18.474199295,-66.099716187,18.47,-66.10
2018-05-14 14:00,18.474199295,-66.099746704,18.47,-66.10
2018-05-14 15:00,18.474166870,-66.099769592,18.47,-66.10
2018-05-14 16:00,18.474166870,-66.099769592,18.47,-66.10
2018-05-14 17:00,18.474166870,-66.099784851,18.47,-66.10
2018-05-14 18:00,18.474199295,-66.099800110,18.47,-66.10
2018-05-14 19:00,18.474216461,-66.099800110,18.47,-66.10
2018-05-14 20:00,18.474216461,-66.099815369,18.47,-66.10
2018-05-14 21:00,18.474216461,-66.099800110,18.47,-66.10
2018-05-14 22:00,18.474216461,-66.099784851,18.47,-66.10
2018-05-14 23:00,18.474216461,-66.099769592,18.47,-66.10
2018-05-15 00:00,18.474166870,-66.099746704,18.47,-66.10
2018-05-15 01:00,18.474166870,-66.099746704,18.47,-66.10
2018-05-15 02:00,18.474216461,-66.099731445,18.47,-66.10
2018-05-15 03:00,18.474250793,-66.099731445,18.47,-66.10
2018-05-15 04:00,18.474250793,-66.099731445,18.47,-66.10
2018-05-15 05:00,18.474233627,-66.099746704,18.47,-66.10
2018-05-15 06:00,18.474184036,-66.099784851,18.47,-66.10
2018-05-15 07:00,18.474166870,-66.099769592,18.47,-66.10
2018-05-15 08:00,18.474199295,-66.099731445,,
2018-05-15 09:00,18.474216461,-66.099716187,,
2018-05-15 10:00,18.474184036,-66.099769592,,
2018-05-15 11:00,18.474199295,-66.099784851,18.47,-66.10
2018-05-15 12:00,18.474199295,-66.099746704,18.47,-66.10
2018-05-15 13:00,18.474184036,-66.099746704,18.47,-66.10
2018-05-15 14:00,18.474199295,-66.099746704,18.47,-66.10
2018-05-15 15:00,18.474199295,-66.099769592,18.47,-66.10
2018-05-15 16:00,18.474199295,-66.099784851,18.47,-66.10
2018-05-15 17:00,18.474184036,-66.099784851,18.47,-66.10
2018-05-15 18:00,18.474216461,-66.099800110,18.47,-66.10
2018-05-15 19:00,18.474216461,-66.099784851,18.47,-66.10
2018-05-15 20:00,18.474199295,-66.099784851,18.47,-66.10
2018-05-15 21:00,18.474184036,-66.099815369,18.47,-66.10
2018-05-15 22:00,18.474216461,-66.099815369,18.47,-66.10
2018-05-15 23:00,18.474233627,-66.099784851,18.47,-66.10
2018-05-16 00:00,18.474250793,-66.099769592,18.47,-66.10
2018-05-16 01:00,18.474233627,-66.099769592,18.47,-66.10
2018-05-16 02:00,18.474216461,-66.099731445,18.47,-66.10
2018-05-16 03:00,18.474216461,-66.099746704,18.47,-66.10
2018-05-16 04:00,18.474233627,-66.099746704,18.47,-66.10
2018-05-16 05:00,18.474233627,-66.099731445,18.47,-66.10
2018-05-16 06:00,18.474216461,-66.099716187,18.47,-66.10
2018-05-16 07:00,18.474233627,-66.099716187,18.47,-66.10
2018-05-16 08:00,18.474233627,-66.099716187,18.47,-66.10
2018-05-16 09:00,18.474216461,-66.099731445,18.47,-66.10
2018-05-16 10:00,18.474216461,-66.099731445,18.47,-66.10
2018-05-16 11:00,18.474199295,-66.099716187,18.47,-66.10
2018-05-16 12:00,18.474216461,-66.099700928,18.47,-66.10
2018-05-16 13:00,18.474199295,-66.099769592,18.47,-66.10
2018-05-16 14:00,18.474199295,-66.099746704,18.47,-66.10
2018-05-16 15:00,18.474199295,-66.099746704,18.47,-66.10
2018-05-16 16:00,18.474199295,-66.099800110,18.47,-66.10
2018-05-16 17:00,18.474184036,-66.099769592,18.47,-66.10
2018-05-16 18:00,18.474184036,-66.099784851,18.47,-66.10
2018-05-16 19:00,18.474233627,-66.099800110,18.47,-66.10
2018-05-16 20:00,18.474199295,-66.099830627,18.47,-66.10
2018-05-16 21:00,18.474199295,-66.099800110,18.47,-66.10
2018-05-16 22:00,18.474199295,-66.099800110,18.47,-66.10
2018-05-16 23:00,18.474199295,-66.099815369,18.47,-66.10
2018-05-17 00:00,18.474199295,-66.099784851,18.47,-66.10
2018-05-17 01:00,18.474216461,-66.099784851,18.47,-66.10
2018-05-17 02:00,18.474233627,-66.099784851,18.47,-66.10
2018-05-17 03:00,18.474216461,-66.099769592,18.47,-66.10
2018-05-17 04:00,18.474250793,-66.099769592,18.47,-66.10
2018-05-17 05:00,18.474266052,-66.099746704,18.47,-66.10
2018-05-17 06:00,18.474266052,-66.099731445,18.47,-66.10
2018-05-17 07:00,18.474233627,-66.099769592,18.47,-66.10
2018-05-17 08:00,18.474250793,-66.099731445,18.47,-66.10
2018-05-17 09:00,18.474233627,-66.099731445,18.47,-66.10
2018-05-17 10:00,18.474250793,-66.099647522,18.47,-66.10
2018-05-17 11:00,18.474199295,-66.099670410,18.47,-66.10
2018-05-17 12:00,18.474199295,-66.099731445,18.47,-66.10
2018-05-17 13:00,18.474216461,-66.099731445,18.47,-66.10
2018-05-17 14:00,18.474184036,-66.099784851,18.47,-66.10
2018-05-17 15:00,18.474199295,-66.099800110,18.47,-66.10
2018-05-17 16:00,18.474184036,-66.099800110,18.47,-66.10
2018-05-17 17:00,18.474199295,-66.099815369,18.47,-66.10
2018-05-17 18:00,18.474199295,-66.099815369,18.47,-66.10
2018-05-17 19:00,18.474184036,-66.099815369,18.47,-66.10
2018-05-17 20:00,18.474184036,-66.099830627,18.47,-66.10
2018-05-17 21:00,18.474216461,-66.099815369,18.47,-66.10
2018-05-17 22:00,18.474216461,-66.099815369,18.47,-66.10
2018-05-17 23:00,18.474216461,-66.099784851,18.47,-66.10
2018-05-18 00:00,18.474199295,-66.099784851,18.47,-66.10
2018-05-18 01:00,18.474166870,-66.099815369,18.47,-66.10
2018-05-18 02:00,18.474199295,-66.099800110,18.47,-66.10
2018-05-18 03:00,18.474184036,-66.099784851,18.47,-66.10
2018-05-18 04:00,18.474199295,-66.099800110,18.47,-66.10
2018-05-18 05:00,18.474166870,-66.099800110,18.47,-66.10
2018-05-18 06:00,18.474184036,-66.099784851,18.47,-66.10
2018-05-18 07:00,18.474184036,-66.099784851,18.47,-66.10
2018-05-18 08:00,18.474199295,-66.099769592,18.47,-66.10
2018-05-18 09:00,18.474233627,-66.099746704,18.47,-66.10
2018-05-18 10:00,18.474216461,-66.099769592,18.47,-66.10
2018-05-18 11:00,18.474216461,-66.099769592,18.47,-66.10
2018-05-18 12:00,18.474233627,-66.099746704,18.47,-66.10
2018-05-18 13:00,18.474199295,-66.099769592,18.47,-66.10
2018-05-18 14:00,18.474184036,-66.099815369,18.47,-66.10
2018-05-18 15:00,18.474199295,-66.099784851,18.47,-66.10
2018-05-18 16:00,18.474149704,-66.099784851,18.47,-66.10
2018-05-18 17:00,18.474184036,-66.099800110,18.47,-66.10
2018-05-18 18:00,18.474184036,-66.099815369,18.47,-66.10
2018-05-18 19:00,18.474199295,-66.099815369,18.47,-66.10
2018-05-18 20:00,18.474184036,-66.099815369,18.47,-66.10
2018-05-18 21:00,18.474184036,-66.099800110,18.47,-66.10
2018-05-18 22:00,18.474184036,-66.099800110,18.47,-66.10
2018-05-18 23:00,18.474199295,-66.099800110,18.47,-66.10
2018-05-19 00:00,18.474166870,-66.099815369,18.47,-66.10
2018-05-19 01:00,18.474184036,-66.099815369,18.47,-66.10
2018-05-19 02:00,18.474199295,-66.099815369,18.47,-66.10
2018-05-19 03:00,18.474283218,-66.099815369,18.47,-66.10
2018-05-19 04:00,18.474233627,-66.099815369,18.47,-66.10
2018-05-19 05:00,18.474233627,-66.099815369,18.47,-66.10
2018-05-19 06:00,18.474250793,-66.099800110,18.47,-66.10
2018-05-19 07:00,18.474266052,-66.099769592,18.47,-66.10
2018-05-19 08:00,18.474266052,-66.099769592,18.47,-66.10
2018-05-19 09:00,18.474199295,-66.099815369,18.47,-66.10
2018-05-19 10:00,18.474266052,-66.099784851,18.47,-66.10
2018-05-19 11:00,18.474233627,-66.099746704,18.47,-66.10
2018-05-19 12:00,18.474184036,-66.099784851,18.47,-66.10
2018-05-19 13:00,18.474216461,-66.099800110,18.47,-66.10
2018-05-19 14:00,18.474216461,-66.099800110,18.47,-66.10
2018-05-19 15:00,18.474250793,-66.099800110,18.47,-66.10
2018-05-19 16:00,18.474199295,-66.099800110,18.47,-66.10
2018-05-19 17:00,18.474233627,-66.099815369,18.47,-66.10
2018-05-19 18:00,18.474199295,-66.099800110,18.47,-66.10
2018-05-19 19:00,18.474199295,-66.099815369,18.47,-66.10
2018-05-19 20:00,18.474199295,-66.099830627,18.47,-66.10
2018-05-19 21:00,18.474199295,-66.099853516,18.47,-66.10
2018-05-19 22:00,18.474250793,-66.099815369,18.47,-66.10
2018-05-19 23:00,18.474233627,-66.099815369,18.47,-66.10
2018-05-20 00:00,18.474216461,-66.099815369,18.47,-66.10
2018-05-20 01:00,18.474216461,-66.099830627,18.47,-66.10
2018-05-20 02:00,18.474216461,-66.099853516,18.47,-66.10
2018-05-20 03:00,18.474233627,-66.099830627,18.47,-66.10
2018-05-20 04:00,18.474216461,-66.099830627,18.47,-66.10
2018-05-20 05:00,18.474233627,-66.099815369,18.47,-66.10
2018-05-20 06:00,18.474233627,-66.099800110,18.47,-66.10
2018-05-20 07:00,18.474216461,-66.099815369,18.47,-66.10
2018-05-20 08:00,18.474233627,-66.099800110,18.47,-66.10
2018-05-20 09:00,18.474250793,-66.099746704,18.47,-66.10
2018-05-20 10:00,18.474216461,-66.099784851,18.47,-66.10
2018-05-20 11:00,18.474250793,-66.099815369,18.47,-66.10
2018-05-20 12:00,18.474216461,-66.099800110,18.47,-66.10
2018-05-20 13:00,18.474216461,-66.099815369,18.47,-66.10
2018-05-20 14:00,18.474216461,-66.099815369,18.47,-66.10
2018-05-20 15:00,18.474184036,-66.099815369,18.47,-66.10
2018-05-20 16:00,18.474199295,-66.099800110,18.47,-66.10
2018-05-20 17:00,18.474199295,-66.099800110,18.47,-66.10
2018-05-20 18:00,18.474199295,-66.099815369,18.47,-66.10
2018-05-20 19:00,18.474184036,-66.099815369,18.47,-66.10
2018-05-20 20:00,18.474199295,-66.099815369,18.47,-66.10
2018-05-20 21:00,18.474184036,-66.099830627,18.47,-66.10
2018-05-20 22:00,18.474184036,-66.099815369,18.47,-66.10
2018-05-20 23:00,18.474199295,-66.099830627,18.47,-66.10
2018-05-21 00:00,18.474216461,-66.099853516,18.47,-66.10
2018-05-21 01:00,18.474216461,-66.099830627,18.47,-66.10
2018-05-21 02:00,18.474199295,-66.099830627,18.47,-66.10
2018-05-21 03:00,18.474216461,-66.099815369,18.47,-66.10
2018-05-21 04:00,,,18.47,-66.10
2018-05-21 05:00,,,18.47,-66.10
2018-05-21 06:00,,,18.47,-66.10
2018-05-21 07:00,,,18.47,-66.10
2018-05-21 08:00,,,18.47,-66.10
2018-05-21 09:00,,,18.47,-66.10
2018-05-21 10:00,,,18.47,-66.10
2018-05-21 11:00,,,18.47,-66.10
2018-05-21 12:00,18.474250793,-66.099784851,18.47,-66.10
2018-05-21 13:00,18.474216461,-66.099800110,18.47,-66.10
2018-05-21 14:00,18.474216461,-66.099815369,18.47,-66.10
2018-05-21 15:00,18.474199295,-66.099815369,18.47,-66.10
2018-05-21 16:00,18.474199295,-66.099800110,18.47,-66.10
2018-05-21 17:00,18.474199295,-66.099815369,18.47,-66.10
2018-05-21 18:00,18.474216461,-66.099830627,18.47,-66.10
2018-05-21 19:00,18.474216461,-66.099815369,,
2018-05-21 20:00,,,,
2018-05-21 21:00,18.474216461,-66.099815369,18.47,-66.10
2018-05-21 22:00,18.474216461,-66.099800110,18.47,-66.10
2018-05-21 23:00,18.474216461,-66.099815369,18.47,-66.10
2018-05-22 00:00,18.474216461,-66.099815369,18.47,-66.10
2018-05-22 01:00,18.474233627,-66.099815369,18.47,-66.10
2018-05-22 02:00,18.474216461,-66.099830627,18.47,-66.10
2018-05-22 03:00,18.474233627,-66.099830627,18.47,-66.10
2018-05-22 04:00,18.474266052,-66.099800110,18.47,-66.10
2018-05-22 05:00,18.474266052,-66.099769592,18.47,-66.10
2018-05-22 06:00,18.474250793,-66.099746704,18.47,-66.10
2018-05-22 07:00,18.474233627,-66.099769592,18.47,-66.10
2018-05-22 08:00,18.474266052,-66.099769592,18.47,-66.10
2018-05-22 09:00,18.474283218,-66.099769592,18.47,-66.10
2018-05-22 10:00,18.474250793,-66.099700928,18.47,-66.10
2018-05-22 11:00,18.474199295,-66.099670410,18.47,-66.10
2018-05-22 12:00,18.474184036,-66.099769592,18.47,-66.10
2018-05-22 13:00,18.474216461,-66.099769592,18.47,-66.10
2018-05-22 14:00,18.474233627,-66.099784851,18.47,-66.10
2018-05-22 15:00,18.474216461,-66.099800110,18.47,-66.10
2018-05-22 16:00,18.474199295,-66.099815369,18.47,-66.10
2018-05-22 17:00,18.474199295,-66.099815369,18.47,-66.10
2018-05-22 18:00,18.474233627,-66.099800110,18.47,-66.10
2018-05-22 19:00,18.474184036,-66.099830627,18.47,-66.10
2018-05-22 20:00,18.474199295,-66.099815369,18.47,-66.10
2018-05-22 21:00,18.474216461,-66.099830627,18.47,-66.10
2018-05-22 22:00,18.474199295,-66.099815369,18.47,-66.10
2018-05-22 23:00,18.474216461,-66.099800110,18.47,-66.10
2018-05-23 00:00,18.474233627,-66.099815369,18.47,-66.10
2018-05-23 01:00,18.474216461,-66.099815369,18.47,-66.10
2018-05-23 02:00,18.474199295,-66.099815369,18.47,-66.10
2018-05-23 03:00,18.474216461,-66.099815369,18.47,-66.10
2018-05-23 04:00,18.474233627,-66.099815369,18.47,-66.10
2018-05-23 05:00,18.474216461,-66.099784851,18.47,-66.10
2018-05-23 06:00,18.474216461,-66.099746704,18.47,-66.10
2018-05-23 07:00,18.474250793,-66.099769592,,
2018-05-23 08:00,18.474266052,-66.099769592,,
2018-05-23 09:00,18.474250793,-66.099769592,,
2018-05-23 10:00,,,,
2018-05-23 11:00,18.474233627,-66.099746704,,
2018-05-23 12:00,18.474250793,-66.099746704,,
2018-05-23 13:00,18.474216461,-66.099784851,,
2018-05-23 14:00,18.474216461,-66.099784851,18.47,-66.10
2018-05-23 15:00,18.474184036,-66.099784851,18.47,-66.10
2018-05-23 16:00,18.474184036,-66.099784851,18.47,-66.10
2018-05-23 17:00,18.474184036,-66.099784851,18.47,-66.10
2018-05-23 18:00,18.474184036,-66.099830627,18.47,-66.10
2018-05-23 19:00,18.474199295,-66.099815369,18.47,-66.10
2018-05-23 20:00,18.474199295,-66.099815369,18.47,-66.10
2018-05-23 21:00,18.474233627,-66.099853516,18.47,-66.10
2018-05-23 22:00,18.474216461,-66.099815369,18.47,-66.10
2018-05-23 23:00,18.474216461,-66.099815369,18.47,-66.10
2018-05-24 00:00,18.474250793,-66.099815369,18.47,-66.10
2018-05-24 01:00,18.474300385,-66.099784851,18.47,-66.10
2018-05-24 02:00,18.474283218,-66.099800110,18.47,-66.10
2018-05-24 03:00,18.474283218,-66.099800110,18.47,-66.10
2018-05-24 04:00,18.474250793,-66.099815369,18.47,-66.10
2018-05-24 05:00,18.474266052,-66.099800110,18.47,-66.10
2018-05-24 06:00,18.474250793,-66.099769592,18.47,-66.10
2018-05-24 07:00,18.474250793,-66.099769592,18.47,-66.10
2018-05-24 08:00,18.474266052,-66.099784851,18.47,-66.10
2018-05-24 09:00,18.474250793,-66.099800110,18.47,-66.10
2018-05-24 10:00,18.474250793,-66.099784851,18.47,-66.10
2018-05-24 11:00,18.474266052,-66.099769592,18.47,-66.10
2018-05-24 12:00,18.474266052,-66.099769592,18.47,-66.10
2018-05-24 13:00,18.474266052,-66.099769592,18.47,-66.10
2018-05-24 14:00,18.474233627,-66.099800110,18.47,-66.10
2018-05-24 15:00,18.474216461,-66.099784851,18.47,-66.10
2018-05-24 16:00,18.474199295,-66.099800110,18.47,-66.10
2018-05-24 17:00,18.474199295,-66.099815369,18.47,-66.10
2018-05-24 18:00,18.474216461,-66.099815369,18.47,-66.10
2018-05-24 19:00,18.474199295,-66.099830627,18.47,-66.10
2018-05-24 20:00,18.474216461,-66.099815369,18.47,-66.10
2018-05-24 21:00,18.474216461,-66.099815369,18.47,-66.10
2018-05-24 22:00,18.474216461,-66.099815369,18.47,-66.10
2018-05-24 23:00,18.474216461,-66.099784851,18.47,-66.10
2018-05-25 00:00,18.474216461,-66.099784851,18.47,-66.10
2018-05-25 01:00,18.474250793,-66.099784851,18.47,-66.10
2018-05-25 02:00,18.474250793,-66.099784851,18.47,-66.10
2018-05-25 03:00,18.474233627,-66.099800110,18.47,-66.10
2018-05-25 04:00,18.474233627,-66.099769592,18.47,-66.10
2018-05-25 05:00,18.474250793,-66.099784851,18.47,-66.10
2018-05-25 06:00,18.474250793,-66.099784851,18.47,-66.10
2018-05-25 07:00,18.474250793,-66.099769592,18.47,-66.10
2018-05-25 08:00,18.474233627,-66.099746704,18.47,-66.10
2018-05-25 09:00,18.474233627,-66.099746704,18.47,-66.10
2018-05-25 10:00,18.474216461,-66.099746704,18.47,-66.10
2018-05-25 11:00,18.474266052,-66.099700928,18.47,-66.10
2018-05-25 12:00,18.474216461,-66.099647522,18.47,-66.10
2018-05-25 13:00,18.474250793,-66.099716187,18.47,-66.10
2018-05-25 14:00,18.474216461,-66.099800110,18.47,-66.10
2018-05-25 15:00,18.474216461,-66.099800110,18.47,-66.10
2018-05-25 16:00,18.474216461,-66.099800110,18.47,-66.10
2018-05-25 17:00,,,18.47,-66.10
2018-05-25 18:00,,,18.47,-66.10
2018-05-25 19:00,,,18.47,-66.10
2018-05-25 20:00,,,18.47,-66.10
2018-05-25 21:00,,,18.47,-66.10
2018-05-25 22:00,,,18.47,-66.10
2018-05-25 23:00,,,18.47,-66.10
2018-05-26 00:00,,,18.47,-66.10
2018-05-26 01:00,,,18.47,-66.10
2018-05-26 02:00,18.474216461,-66.099784851,18.47,-66.10
2018-05-26 03:00,18.474233627,-66.099800110,18.47,-66.10
2018-05-26 04:00,18.474233627,-66.099815369,18.47,-66.10
2018-05-26 05:00,18.474250793,-66.099769592,18.47,-66.10
2018-05-26 06:00,18.474250793,-66.099769592,18.47,-66.10
2018-05-26 07:00,18.474250793,-66.099769592,18.47,-66.10